Torna al catalogo

THOR ABLESTAR DEB

AttivoLEO
NORAD 210·DEBRIS·🇺🇸 United States

Lanciato Jun 29, 1961 da Cape Canaveral Space Force Station

Loading…

Prossimi Passaggi (prossime 24 ore)

TLE

AggiornatoSource: Space-Track

Epoca: Sep 14, 2026, 09:50 UTC

1 00210U 61015BE  26257.40980039  .00000342  00000-0  34226-3 0  9990
2 00210  66.4565 145.2884 0053193 258.7633 100.7461 13.89160462277795

Traccia THOR ABLESTAR DEB in tempo reale con AllMySat

Download on the App Store